Espace membre
ImprimablePdf
Challenges > Kust Criterium - Bredene, 24/01/2010, BEL - Mountainbike Classic Bredene
Liste des rapports > 43km - Classement
Recherche: Page: [1] 2
372 Entrées
 
Les réclamations ne sont plus acceptées, les résultats sont considérés comme définitifs.
Catégorie
PosNrNomAgeIOCTempsTkmMoy.RangNomLocalité
1.2459VERMEULEN Nicolas26BEL1:14:241:44 34.681eliVILVOORDE
2.2630BERCKMANS Nico41BEL1:14:321:44 34.621masBALEN
3.6057VANDOUSSELAERE Sven22BEL1:15:531:46 34.012eliWAARDAMME
4.2612VAN HOOVELS Kevin25BEL1:15:531:46 34.003eliBETEKOM
5.3178COMMEYNE Davy30BEL1:15:541:46 34.004eliOTEGEM
6.4426HENDERIECKX Kris33BEL1:15:541:46 33.995eliBELSELE
7.2637HIMPENS Maarten25BEL1:15:561:46 33.986eliVEURNE
8.2696MASSAER Joris28BEL1:15:561:46 33.987eliPEPINGEN
9.2648RONDELEZ Bjorn34BEL1:16:001:47 33.958eliKOEKELARE
10.6084ART Quentin20BEL1:19:451:52 32.359eliSOMBREFFE
11.6063IMMING Bram20NLD1:19:501:52 32.3210eliEGMOND-BINNEN
12.2624BAERT Luc41BEL1:19:501:52 32.322masZELE
13.2654RYCKAERT Johan34BEL1:19:501:52 32.3211eliSIJSELE
14.4418SCHEIRE Ruben19BEL1:19:501:52 32.321junBEERVELDE
15.3109SABBE Nico26BEL1:19:501:52 32.3212eliASSEBROEK
16.6062SCHEFFER Jeroen47NLD1:19:511:52 32.323masBERVERWIJK
17.2486VERVECKEN Bert41BEL1:19:521:52 32.314masHERENTALS
18.2673VERBOVEN Bert32BEL1:19:531:52 32.3013eliWESTERLO
19.2647VERSTRAETE Peter36BEL1:20:041:52 32.2314eliPAAL
20.3128VANLAERE Kenny29BEL1:21:131:54 31.7715eliBEERNEM
21.2676HOREMANS Tom31BEL1:21:131:54 31.7716eliOUD-TURNHOUT
22.4424VANDENBOGAERDE Robin22BEL1:21:151:54 31.7617eliBREDENE
23.3129DEWILDE Wouter31BEL1:21:341:54 31.6318eliTORHOUT
24.3158VANDAELE Philip25BEL1:21:351:54 31.6319eliOOSTENDE
25.2631BEYENS Yoeri32BEL1:21:351:54 31.6220eliBALEN
26.2661BOETENS Matthias19BEL1:21:361:54 31.622junDEINZE
27.2468BENS Rudy50BEL1:21:361:54 31.625masLAAKDAL
28.2434VANSIELEGHEM Lander22BEL1:21:361:54 31.6221eliBREDENE
29.3110WYTINCK Niels19BEL1:21:371:54 31.623junLEMBEKE
30.2652SABBE Jonas24BEL1:21:371:54 31.6122eliLEFFINGE
31.2477VAN DE VELDE Valentijn19BEL1:21:371:54 31.614junLEMBEKE
32.2461VAN DE VELDE Jan42BEL1:21:371:54 31.616masBREDENE
33.2427DALLE Dany45BEL1:21:381:54 31.617masBLANKENBERGE
34.6059CODDENS Peter33BEL1:21:381:54 31.6123eliTORHOUT
35.3126DUPON Frederik38BEL1:21:381:54 31.6124eliNIEUWPOORT
36.2428VANSIELEGHEM Jasper20BEL1:21:381:54 31.6125eliBREDENE
37.2634GOVAERT Arne22BEL1:21:381:54 31.6126eliBRUGGE
38.2473VANDEN BON Jurgen31BEL1:21:381:54 31.6127eliOOSTENDE
39.6080LUYTEN Jeff18BEL1:21:391:54 31.605junWESTERLO
40.3199VAN HECKE Bart25BEL1:22:001:55 31.4728eliKALKEN
41.6075ROSKAM Andy36BEL1:22:201:55 31.3429eliRUISBROEK
42.2699DEMETS Ward25BEL1:22:221:55 31.3330eliZINGEM
43.2672MICHELS Andy32BEL1:22:361:56 31.2431eliKRUISHOUTEM
44.2499HUYGHE Peter45BEL1:22:361:56 31.248masWESTKERKE
45.2451VANMOLECOT Steven31BEL1:22:371:56 31.2332eliBREDENE
46.2432SMET Gert37BEL1:22:371:56 31.2333eliBAZEL
47.2641DELHEYE Henri32BEL1:22:371:56 31.2334eliDAMME
48.3156DE WAARD Pim45NLD1:22:381:56 31.239masHEILOO
49.2454SEYNAEVE Gino37BEL1:22:381:56 31.2335eliBREDENE
50.3168VANSIELEGHEM Tim19BEL1:22:381:56 31.236junBREDENE
51.3118POPELIER Mario43BEL1:22:381:56 31.2210masOOSTENDE
52.4429COUSSEMENT Jakob22BEL1:22:381:56 31.2236eliWANNEGEM LEDE
53.3148VOLDERS Denis44BEL1:22:401:56 31.2111masAVERBODE
54.2446OSAER David30BEL1:23:431:57 30.8237eliGISTEL
55.2667VERTESSEN Johnny44BEL1:23:451:57 30.8112masRILLAAR
56.2606DHIEDT Bram18BEL1:23:551:58 30.757junETTELGEM
57.6044LAMMERTYN Geert36BEL1:23:581:58 30.7338eliOOSTENDE
58.3124RAEDT Nielsen23BEL1:23:591:58 30.7239eliSNAASKERKE
59.6508HAERYWCK David27BEL1:23:591:58 30.7240eliBOEZINGE
60.3187CUYLAERTS Eric40BEL1:23:591:58 30.7241eliHERENTALS
61.2636BOGAERTS Erwin42BEL1:24:001:58 30.7213masLOMMEL
62.2619WYNSBERGHE Michel51BEL1:24:011:58 30.7114masOOSTENDE
63.2442LEFEVRE Jasper25BEL1:24:011:58 30.7142eliNIEUWPOORT
64.3165VERPLANCKE Thomas25BEL1:24:031:58 30.7043eliAATRIJKE
65.2627VAN DEN BRANDE Noel45BEL1:24:041:58 30.6915masLICHTAART
66.2491WAUTERS Brett27BEL1:24:051:58 30.6944eliSINT-MARTENS-BODEGEM
67.2632MORIS Sven24BEL1:24:061:58 30.6845eliBEGIJNEDIJK
68.3177FVERBEKE Grace26BEL1:24:191:58 30.601damAARTRIJKE
69.2604TOLLENAERE Wim41BEL1:24:221:58 30.5816masOPWIJK
70.3162VANNEVEL Dries20BEL1:24:231:58 30.5846eliADEGEM
71.3175VAN CLEEMPUTTE Timmy33BEL1:24:241:58 30.5747eliDENDERLEEUW
72.6060VAN DER STOCKT David39BEL1:24:241:58 30.5748eliGERAARDSBERGEN
73.2484DECROO Philippe35BEL1:24:281:58 30.5549eliADINKERKE-DE PANNE
74.2614STUBBE Michiel28BEL1:24:341:58 30.5150eliWENDUINE
75.2669DE WEGHE Sam23BEL1:24:571:59 30.3851eliPEPINGEN
76.3174NIJS Tim31BEL1:24:591:59 30.3652eliLOMMEL
77.2688LEYS Dries32BEL1:25:171:59 30.2553eliBRUGGE
78.2409VIENNE Gunar44BEL1:25:402:00 30.1217masWESTKERKE
79.2640VAN DAELE Tim30BEL1:25:542:00 30.0454eliBURCHT
80.3121VANSLEMBROUCK Elie33BEL1:26:112:01 29.9455eliICHTEGEM
81.3123GODERIS Jelle19BEL1:26:112:01 29.948junZARREN
82.3167DE KOCK Chris35BEL1:26:122:01 29.9456eliMOOREL
83.3125SMOLDERS Davy36BEL1:26:122:01 29.9357eliRAVELS
84.6034GRIETEN Kevin28BEL1:26:132:01 29.9358eliWILBEEK
85.3161DEBBOUDT Kristof32BEL1:26:172:01 29.9059eliZOTTEGEM
86.2700VANDEROSTYNE Davy37BEL1:26:192:01 29.8960eliOOSTENDE
87.6053VAN DE SCHANS Dirk31BEL1:26:252:01 29.8661eliLOMMEL
88.3122DE BAENE Tim18BEL1:26:262:01 29.859junKNOKKE HEIST
89.2443HEINIX Christophe35BEL1:26:282:01 29.8462eliBOECHOUT
90.6065DEMUNCK Eddy42BEL1:26:282:01 29.8418masOOSTDUINKERKE
91.2684DUMOULIN Steven33BEL1:26:282:01 29.8463eliROESELARE
92.2429WAEGENAER Francis40BEL1:26:292:01 29.8464eliVILVOORDE
93.2685BARTELS Victor50BEL1:26:342:01 29.8119masWEELDE
94.6083VAN WESEMAEL Wim39BEL1:26:522:02 29.7165eliSERSKAMP
95.3103SNOECK Jose44BEL1:26:542:02 29.6920masST-AMANDSBERG
96.2437DAUWENS Jan28BEL1:26:572:02 29.6866eliZUIENKERKE
97.2644DE MUNTER Alain44BEL1:27:032:02 29.6421masHULDENBERG
98.4435LELEU Christian27FRA1:27:052:02 29.6367eliVIOLAINES
99.2433VAN WOENSEL Alain36BEL1:27:072:02 29.6268eliBOOISCHOT
100.3153DEWOLF Frederic39BEL1:27:182:02 29.5669eliOOSTENDE
101.2490HERTSENS Kris41BEL1:27:232:02 29.5322masSINT-NIKLAAS
102.2615DE NOYETTE Didier45BEL1:27:252:02 29.5123masKNOKKE-HEIST
103.2476VAN DER CRUYSSEN Tom32BEL1:27:342:03 29.4770eliOOSTAKKER
104.2462NEYRINCK Steve26BEL1:27:392:03 29.4471eliRUDDERVOORDE
105.2475BULTYNCK Frank37BEL1:27:392:03 29.4472eliOOSTENDE
106.6509MONSERE Kristoff41BEL1:27:392:03 29.4424masINGELMUNSTER
107.2618VANHUELE Frank39BEL1:27:392:03 29.4473eliOUDENBURG
108.2656NOLLET Stefaan39BEL1:27:402:03 29.4374eliBEERNEM
109.2609VERJANS Sven28BEL1:27:402:03 29.4375eliMERCHTEM
110.2690BUYL Kevin27BEL1:27:402:03 29.4376eliASSE
111.6041DUYCK Jan40BEL1:27:412:03 29.4377eliASPER
112.2424STROO Luc47BEL1:27:422:03 29.4225masZELZATE
113.3146DELHAYE Rudy22FRA1:27:492:03 29.3878eliWARGNIES LE PETIT
114.3113DE BRUYNE Danny44BEL1:28:422:04 29.0926masWAARSCHOOT
115.4404HAMERS Sybren18BEL1:28:432:04 29.0910junZWEVEGEM
115.2659VERSTRAETEN Sven31BEL1:28:432:04 29.0979eliITEGEM
117.3140DILISSEN Raf40BEL1:28:442:04 29.0880eliEKSEL
118.2613SOMERS Leo46BEL1:28:452:04 29.0727masVORSELAAR
119.4405LONCKE Stéphane Maurice43BEL1:28:472:04 29.0628masOUDENBURG
120.2686FILEZ Nico38BEL1:28:532:05 29.0381eliMEULEBEKE
121.2472DE BOCK Hannes26BEL1:29:022:05 28.9882eliKALMTHOUT
122.6582TOUSSEIN Jan30BEL1:29:052:05 28.9683eliBRUGGE
123.4406DE CLERCQ Wouter33BEL1:29:072:05 28.9584eliGAVERE
124.3197DE DAUW Benny39BEL1:29:082:05 28.9585eliSINT-NIKLAAS
125.4403VAN WEZOP Dennis22NLD1:29:122:05 28.9386eliCASTRICUM
126.6082SEYNAEVE Vincent32BEL1:30:452:07 28.4387eliWERVIK
127.2469SEY Barry36BEL1:30:472:07 28.4288eliKNOKKE
128.2458STANDAERT Sven36BEL1:30:472:07 28.4289eliZAFFELARE
129.2481DE SMYTER Dominique38BEL1:30:472:07 28.4290eliKRUISHOUTEM
130.6087DE CLERCQ Patrick41BEL1:30:482:07 28.4229mas
131.2480VERCRUYSSE Didier45BEL1:30:482:07 28.4130masTORHOUT
132.2681VERMORGEN Johan42BEL1:30:512:07 28.4031masHAMME (O.-VL.)
133.2642LANDSCHOOT Danny45BEL1:30:512:07 28.4032masNIEUWPOORT
134.3154VANDIERENDONCK Jan24BEL1:30:522:07 28.4091eliZWEVEZELE
135.3147JANSSEN Guy34BEL1:30:542:07 28.3892eliMEEUWEN
136.3143VAN KERCKHOVE Geert43BEL1:30:552:07 28.3833masZELE
137.3182DELODDERE Jean39BEL1:31:012:07 28.3593eliKNOKKE-HEIST
138.6076MOORTGAT Peter38BEL1:31:182:08 28.2694eliBORSBEKE
139.2415DECEUNINCK Kurt41BEL1:31:212:08 28.2434masLISSEWEGE
140.2629DESOMER Peter31BEL1:31:242:08 28.2395eliBREDENE
141.2671KENNIS Soren24BEL1:31:352:08 28.1796eliSTEKENE
142.6061VAN CLEYNENBREUGEL Bert43BEL1:31:472:09 28.1135masSCHERPENHEUVEL-ZICHEM
143.2422VAN DE WATER Johan36BEL1:32:002:09 28.0597eliKNOKKE-HEIST
144.2494SPYSSCHAERT Luc50BEL1:32:032:09 28.0336masKNOKKE
145.2679DE NEVE Chris36BEL1:32:542:10 27.7798eliJABBEKE
146.3188VAN LOON Tom30BEL1:32:582:10 27.7699eliWEELDE
147.2666DE PRETER Kevin32BEL1:32:592:10 27.75100eliBREDENE
148.2664D'HOOGHE Wim37BEL1:33:012:10 27.74101eliROESELARE
149.2621VANDENBULCKE Tommy37BEL1:33:012:10 27.74102eliBAVIKHOVE
150.2683BLONDELLE Kurt43BEL1:33:012:10 27.7437masSINT-KRUIS (BRUGGE)
151.2638HERTSENS Jan43BEL1:33:022:10 27.7338masST-PAUWELS
152.3144BOGAERT Patrick45BEL1:33:042:10 27.7339masERPE MERE
153.3120RYCKELYNCK Glenn33BEL1:33:082:10 27.71103eliBREDENE
154.4423COOL Gregory33BEL1:33:082:10 27.70104eliOTEGEM
155.2441VANAUDENAERDE Pascal39BEL1:33:082:10 27.70105eliHANDZAME
156.4433ROSEZ Diederik28BEL1:33:092:10 27.70106eliDADIZELE
157.2455DECOCK Gunther47BEL1:33:102:10 27.6940masWILLEBROEK
158.4434DEBRUYNE Olivier33FRA1:33:132:11 27.68107eliSTEENWERCK
159.2411PYLYSER Koen40BEL1:33:302:11 27.59108eliOOSTENDE
160.2464VANDENBROUCKE Joachim17BEL1:33:332:11 27.5811junBLANKENBERGE
161.2423DECRU Alexander35BEL1:33:342:11 27.58109eliOOSTENDE
162.2470COULIER Theis32BEL1:33:342:11 27.58110eliOOSTENDE
163.3135HILLEWAERE Dries33BEL1:33:432:11 27.53111eliOOSTKAMP
164.2500SPYSSCHAERT Dirk42BEL1:33:432:11 27.5341masKNOKKE HEIST
165.2401COREMANS Dirk43BEL1:33:532:11 27.4842masMESSELBROEK
166.2487ROOMS Frederik23BEL1:33:542:12 27.48112eliBLANKENBERGE
167.2662DE BUF Gwen40BEL1:33:552:12 27.47113eliBREDENE
168.2649DE ROUCK Guy45BEL1:33:572:12 27.4643masZINGEN
169.2456SAMAEY Gill29BEL1:34:122:12 27.39114eliDE HAAN
170.3181DE MAESSCHALCK Jan40BEL1:34:242:12 27.33115eliKNOKKE-HEIST
171.2622BOEY Thibaut38BEL1:34:342:12 27.28116eliOOSTENDE
172.6510VAN STAPPEN Patrick40BEL1:34:352:12 27.28117eliSCHOTEN
173.2410BAEKELANDT Wim42BEL1:34:382:13 27.2744masZEEBRUGGE (BRUGGE)
174.2668VELDEMAN Dirk40BEL1:34:392:13 27.26118eliWICHELEN
175.2448COURS Andy36BEL1:34:542:13 27.19119eliWETTEREN
176.2625VAN GOETHEM Michiel34BEL1:34:552:13 27.19120eliVARSENARE
177.3134ROHDE Horst51GER1:34:562:13 27.1845masWEILERSWIST
178.6078CRISPEYN Pieter30BEL1:34:562:13 27.18121eliHERENT
179.6031BAERT Dirk41BEL1:34:562:13 27.1846masWINGENE
180.3196ARIJS Geert39BEL1:34:572:13 27.17122eliTERNAT
181.2419DE WILDE Steven41BEL1:35:042:13 27.1447masLOCHRISTI
182.3131VANDERVELPEN Patrick44BEL1:35:442:14 26.9548masDIEST
183.2660GIJSEL Serge30BEL1:36:102:15 26.83123eliZELZATE
184.3114ROELENS Peter33BEL1:36:112:15 26.83124eliDADIZELE
185.3193VAN DAMME Bart55BEL1:36:222:15 26.7749masWERVIK
186.3157DE WAEGENAERE Christophe31BEL1:36:242:15 26.77125eliWEVELGEM
187.2682NAESSENS Johnny31BEL1:36:302:15 26.74126eliBREDENE
188.2677DE ROOS Stany46BEL1:36:312:15 26.7350masHAMME (O.-VL.)
189.3171LEPERCQ Andy37BEL1:36:362:15 26.71127eliKUURNE
190.4428VAN PASSEL Jeroen29BEL1:36:372:15 26.71128eliAARSCHOT
191.2407LIERMAN Peter41BEL1:36:372:15 26.7151masKNOKKE-HEIST
192.6073ANTHEUNIS Christophe40BEL1:36:372:15 26.70129eliLOKEREN
193.3105ROTSAERT Paul46BEL1:36:372:15 26.7052masKNOKKE-HEIST
194.2663DE ROUS Robin18BEL1:36:572:16 26.6112junBLANKENBERGE
195.6055SYMONS Frank40BEL1:37:012:16 26.59130eliKAPELLE-OP-DEN-BOS
196.6089POTVIN Frank39BEL1:37:052:16 26.58131eliEINE
197.4421VAN DE KERCKHOVE Eddy43BEL1:37:062:16 26.5753masZELE
198.2670ESPRIT Guillaume28BEL1:37:072:16 26.57132eliGELUWE
199.2460DENEIRE Koen37BEL1:37:092:16 26.56133eliBLANKENBERGE
200.3106EYGENRAAM Kris33BEL1:37:282:16 26.47134eliAARTSELAAR
DNF: abandon; DSQ: disqualifié; Vitesse en km/h